Regional Weather Roundup
Issued by NWS Green Bay, WI

Home | Current Version | Previous Version | Text Only | Print | Product List | Glossary On
Versions: 1 2 3 4 5 6 7 8 9 10 11 12 13 14 15 16 17 18 19 20 21 22 23 24 25 26 27 28 29 30 31 32 33 34 35 36 37 38 39 40 41 42 43 44 45 46 47 48 49 50
000
ASUS43 KGRB 200759
RWRGRB

NORTH-CENTRAL AND NORTHEAST WISCONSIN REGIONAL WEATHER ROUNDUP
NATIONAL WEATHER SERVICE GREEN BAY WI
300 AM CDT SAT SEP 20 2014

WIZ005-009-010>012-018-019-200900-
NORTH CENTRAL WISCONSIN

CITY           SKY/WX    TMP DP  RH WIND       PRES   REMARKS
IRONWOOD       PTCLDY    64  63  94 SW10      29.59F
MANITOWISH WTR NOT AVBL
ARBOR VITAE    NOT AVBL
EAGLE RIVER    NOT AVBL
LAND O LAKES   NOT AVBL
RHINELANDER    CLOUDY    62  58  86 SW9       29.70S
PHILLIPS       CLOUDY    65  62  91 SW10G16   29.67S
ANTIGO         NOT AVBL
TOMAHAWK       NOT AVBL
MERRILL        NOT AVBL
$$

WIZ013-073-200900-
NORTHEAST WISCONSIN

CITY           SKY/WX    TMP DP  RH WIND       PRES   REMARKS
IRON MOUNTAIN  CLOUDY    62  54  74 S6        29.68F
MARINETTE      CLOUDY    63  54  72 SW7       29.70F
$$

WIZ017-030-035>037-045-200900-
CENTRAL WISCONSIN

CITY           SKY/WX    TMP DP  RH WIND       PRES   REMARKS
MEDFORD        NOT AVBL
WAUSAU         CLOUDY    64  58  80 SW9       29.71S
MOSINEE        LGT RAIN  61  59  94 S9        29.74S
MARSHFIELD     CLOUDY    65  62  90 S13       29.73R
WISC RAPIDS    RAIN      64  62  93 S17G24    29.75F FOG
STEVENS POINT  NOT AVBL
WAUPACA        NOT AVBL
SHAWANO        CLOUDY    66  56  70 SW8       29.74R
CLINTONVILLE   HVY RAIN  63  55  77 SW14      29.74R
$$

WIZ038-039-048-051-200900-
FOX VALLEY

CITY           SKY/WX    TMP DP  RH WIND       PRES   REMARKS
NWS GREEN BAY  LGT RAIN  64  56  75 SW10      29.75S
APPLETON       NOT AVBL
OSHKOSH        TSTM      65  56  72 SW12G18   29.79R
FOND DU LAC    CLOUDY    65  54  67 SW17G26   29.79R
$$

WIZ022-050-052-200900-
EAST CENTRAL WISCONSIN

CITY           SKY/WX    TMP DP  RH WIND       PRES   REMARKS
STURGEON BAY   CLOUDY    63  54  72 SW8       29.75S
MANITOWOC      NOT AVBL
SHEBOYGAN      CLOUDY    66  54  65 SW18G29   29.79F
$$

LMZ563-521-522-541>543-200900-
LAKESHORE

STATION/POSITION TIME  TEMP    WIND        PRES    VSBY  WAVE
                       AIR SEA DIR/SP/G                  HT/PER
                 (UTC) (F)     (DEG/KT/KT) (MB)    (MI)  (FT/S)
SHEBOYGAN LKSHOR 0700   60 55  180/ 15/ 16 1009.2F
KEWAUNEE LKSHORE 0700   61     190/  9/ 11 1006.4F
NORTHPORT PIER   0700   61     160/  9/ 17 1007.5S
N MID LAKE BUOY  0700   61 58  210/ 23/ 29 1006.6F         8/ 7
S GREEN BAY BUOY 0700   63     VRB 12/ 14  1007.5F
SISTER BAY LKSHO 0700          170/ 12/ 16   N/A
CHAMBERS ISLAND  0700   63     170/  7/ 15 1006.4F
MENOMINEE LKSHOR 0700   64     190/  8/ 12 1006.6F
$$


USA.gov is the U.S. government's official web portal to all federal, state and local government web resources and services.